Home > Weather > Saint-Pierre > Past weeks

Flag for Saint Pierre and Miquelon Past Weather in Saint-Pierre, Saint Pierre and Miquelon — Yesterday and Last 2 Weeks

Now
63 °F

Overcast.


Feels Like: 63 °F
Forecast: 65 / 67 °F
Wind: 15 mph from Southwest

Location: Saint-Pierre

Current Time: Aug 26, 2016 at 3:19:07 AM

Latest Report: Aug 26, 2016 at 2:00 AM


Visibility: 6 mi

Pressure: 29.98 "Hg

Humidity: 92%

Dew Point: 61 °F

Location of Saint-PierreLocation

Past Weather in Saint-Pierre — Graph

°F

Saint-Pierre Temperature Yesterday

Maximum temperature yesterday: 69 °F (at 12:00 PM)
Minimum temperature yesterday: 61 °F (at 7:00 AM)
Average temperature yesterday: 64 °F

High & Low Weather Summary for the Past Weeks

 TemperatureHumidityPressure
High73 °F (Aug 16, 2:00 PM)97% (Aug 11, 9:00 PM)30.21 "Hg (Aug 11, 9:00 PM)
Low53 °F (Aug 14, 7:00 AM)49% (Aug 16, 2:00 PM)29.70 "Hg (Aug 12, 11:00 PM)
Average62 °F85%29.96 "Hg
* Reported Aug 11 2:00 AM — Aug 26 2:00 AM, Saint-Pierre, Weather by CustomWeather, © 2016

Note: Actual official high and low records may vary slightly from our data, if they occured in-between our weather recording intervals... More about our weather records

Advertising

Saint-Pierre Weather History for the Previous 24 Hours

Scroll right to see more
 ConditionsComfort  
Time TempWeatherWind HumidityBarometerVisibility
2:00 AM
Fri, Aug 26
63 °FOvercast.15 mph92%29.98 "Hg6 mi
1:00 AM63 °FOvercast.14 mph93%29.99 "Hg5 mi
12:00 AM64 °FOvercast.18 mph94%29.99 "Hg5 mi
11:00 PM
Thu, Aug 25
64 °FOvercast.18 mph93%30.00 "Hg6 mi
9:00 PM64 °FMild.17 mph92%30.00 "Hg7 mi
8:00 PM64 °FOvercast.15 mph90%30.01 "Hg9 mi
7:00 PM66 °FOvercast.16 mph85%30.01 "Hg9 mi
6:00 PM68 °FMild.18 mph80%30.02 "Hg11 mi
5:00 PM68 °FOvercast.15 mph80%30.03 "Hg9 mi
4:00 PM67 °FOvercast.12 mph84%30.04 "Hg9 mi
2:00 PM68 °FOvercast.16 mph85%30.05 "Hg9 mi
1:00 PM67 °FOvercast.14 mph85%30.06 "Hg6 mi
12:00 PM69 °FLow clouds.13 mph84%30.06 "Hg6 mi
11:00 AM68 °FLow clouds.7 mph87%30.06 "Hg6 mi
10:00 AM65 °FLow clouds.15 mph94%30.07 "Hg6 mi
9:00 AM64 °FLow clouds.13 mph96%30.07 "Hg6 mi
8:00 AM62 °FPartly sunny.7 mph97%30.07 "Hg6 mi
7:00 AM61 °FFog.7 mph96%30.08 "Hg2 mi
6:00 AM62 °FFog.10 mph96%30.07 "Hg0 mi
5:00 AM62 °FLight rain. Dense fog.10 mph96%30.07 "Hg0 mi
4:00 AM61 °FLow clouds.10 mph97%30.07 "Hg1 mi
3:00 AM61 °FLow clouds.9 mph95%30.07 "Hg3 mi
Weather by CustomWeather, © 2016

See weather overviewHow to use our weather pages